Regional Weather Roundup
Issued by NWS

Home | Current Version | Previous Version | Text Only | Print | Product List | Glossary On
Versions: 1 2 3 4 5 6 7 8 9 10 11 12 13 14 15 16 17 18 19 20 21 22 23 24 25 26 27 28 29 30 31 32 33 34 35 36 37 38 39 40 41 42 43 44 45 46 47 48 49 50
000
ASHW40 PHFO 311043
RWRHI

WEATHER ROUNDUP FOR HAWAII
NATIONAL WEATHER SERVICE HONOLULU HI
1200 AM HST SAT JAN 31 2015

THIS IS AN AUTOMATED REPORT THAT HAS NOT BEEN QUALITY CONTROLLED.

NOTE..."FAIR" INDICATES FEW OR NO CLOUDS BELOW 12,000 FEET WITH NO
SIGNIFICANT WEATHER AND/OR OBSTRUCTIONS TO VISIBILITY.

* - THESE SITES REPORT LIMITED FIELDS

HIZ001>004-311100-
KAUAI-NIIHAU-

CITY           SKY/WX    TMP DP  RH WIND       PRES   REMARKS
LIHUE APT      PTCLDY    63  57  81 W7        30.03F
PORT ALLEN*      N/A     61 N/A N/A N7          N/A
POIPU*           N/A     57 N/A N/A NW3         N/A
PRINCEVILLE*     N/A     61 N/A N/A MISG        N/A
KOKOLE POINT*  NOT AVBL
MOLOAA DAIRY*  NOT AVBL
WAIMEA HTS*      N/A     64  48  55 N2          N/A
PUU OPAE*        N/A     57  48  72 CALM        N/A
PUU LUA*       NOT AVBL
MAKAHA RIDGE*  NOT AVBL
$$

HIZ005>011-311100-
OAHU-

CITY           SKY/WX    TMP DP  RH WIND       PRES   REMARKS
HONOLULU       PTCLDY    69  63  81 NW7       30.00S
KALAELOA       PTCLDY    67  60  78 VRB3      30.02S
KANEOHE MCB    MOCLDY    70  61  72 VRB3      29.99S
WHEELER FIELD  FAIR      62  60  92 NW6       30.03S
BELLOWS*         N/A    N/A N/A N/A W3          N/A
KAHUKU*          N/A    N/A N/A N/A S1          N/A
WHEELER*       NOT AVBL
WAIANAE HARBOR NOT AVBL
DILLINGHAM*      N/A     64  63  94 MISG        N/A
KAHUKU TRN*      N/A     64  61  88 SE1         N/A
KAWAILOA*        N/A    N/A N/A N/A NE6         N/A
KII*             N/A     66  63  88 CALM        N/A
MAKUA RANGE*     N/A     68  61  77 E8          N/A
OAHU FOREST NW   N/A     61  14  16 CALM        N/A
SCHOFIELD BRK*   N/A     59  57  94 MISG        N/A
SCHOFIELD S*   NOT AVBL
WAIANAE VLY*     N/A     61  59  94 N6          N/A
KUAOKALA*        N/A     64  59  82 CALM        N/A
HONOULIUULI*   NOT AVBL
MOKUOLOE IS*     N/A    N/A N/A N/A MISG        N/A
PALEHUA*         N/A    N/A N/A N/A CALM        N/A
WAIAWA PHB*    NOT AVBL
$$

HIZ012>013-311100-
MOLOKAI-

CITY           SKY/WX    TMP DP  RH WIND       PRES   REMARKS
MOLOKAI AIRPT  PTCLDY    69  67  93 N6        30.02S
KALAUPAPA      NOT AVBL
MAKAPULAPAI*     N/A     70  66  88 S3          N/A
MOLOKAI 1*       N/A     57  57 100 NE1         N/A
PUU ALII*        N/A     53  53 100 CALM        N/A
$$

HIZ016-311100-
KAHOOLAWE-

CITY           SKY/WX    TMP DP  RH WIND       PRES   REMARKS
KAHOOLAWE*       N/A     66 N/A N/A NE8         N/A
HAKIOAWA*        N/A     69  69  99 MISG      30.42F
HONOKANAIA*      N/A     72  66  82 VRB8G14   30.01S
KANELOA*         N/A     73  70  88 MISG      29.23S
KEALIALALO*    NOT AVBL
LUA MAKIKA*    NOT AVBL
$$

HIZ014>015-311100-
LANAI-

CITY           SKY/WX    TMP DP  RH WIND       PRES   REMARKS
LANAI CITY     FAIR      63  63 100 E6        30.05F
LANAI 1*         N/A     66  66 100 E10G17      N/A
$$

HIZ017>028-311100-
MAUI-

CITY           SKY/WX    TMP DP  RH WIND       PRES   REMARKS
KAHULUI        PTCLDY    71  67  87 S3        30.00F
KAPALUA-W MAUI NOT AVBL
HANA AIRPORT   CLOUDY    68  68 100 CALM      30.02F
HANA*            N/A     68 N/A N/A S3          N/A
HALEAKALA SUMM   N/A     37  32  81 SW9G28      N/A
MAALAEA BAY*   NOT AVBL
HALEAKALA*     NOT AVBL
KAUPO GAP*       N/A     57  55  94 N1G8        N/A
KULA 1*          N/A     52  49  90 S10G16      N/A
$$

HIZ023>026-311100-
BIG ISLAND OF HAWAII COAST AND LOWER SLOPES-

CITY           SKY/WX    TMP DP  RH WIND       PRES   REMARKS
KAILUA KONA    CLOUDY    77  66  68 SE5       29.98S
HILO           MOCLDY    72  67  84 SW3       30.00S
HONOKAA*       NOT AVBL
KAWAIHAE MWT*    N/A     77 N/A N/A VRB1        N/A
KAWAIHAE*        N/A     75 N/A N/A NE2         N/A
SOUTH POINT*     N/A     68 N/A N/A NE5         N/A
UPOLU AIRPORT*   N/A    N/A N/A N/A E8          N/A
KAMUELA*       NOT AVBL
HAKALAU*         N/A     43  41  93 W3G9        N/A
KALOKO-HONOKO*   N/A     75  64  69 E3        29.97F
PALI 2*          N/A     63  63 100 NE1         N/A
KEALAKOMO*       N/A     75  66  73 NW3         N/A
KAUPULEHU*       N/A     72  59  64 SE3         N/A
KAPAPALA*        N/A     65  64  96 CALM        N/A
LOWER KAHUKU*    N/A     61  61 100 VRB2        N/A
PUHE CS*         N/A     75  66  73 CALM        N/A
PUHO CS*         N/A     75  64  69 NE1         N/A
PTA KEAMUKU*     N/A     63  55  77 CALM        N/A
WAIKOLOA*        N/A    N/A N/A N/A SE3         N/A
$$

HIZ027>028-311100-
BIG ISLAND OF HAWAII INTERIOR AND SUMMMITS-

CITY           SKY/WX    TMP DP  RH WIND       PRES   REMARKS
BRADSHAW FIELD CLOUDY    40  35  81 SE3       30.32S
MK VISITOR CEN NOT AVBL
MAUNA KEA*       N/A     30  -9  17 NW21        N/A  WCI  17
MAUNA LOA*       N/A     39  -4  16 MISG        N/A
MAUNA LOA 1*   NOT AVBL
PTA KIPUKA*      N/A     54  50  87 E5          N/A
PTA RANGE 17*    N/A     52  50  93 E3          N/A
PTA WEST*        N/A     61  55  82 E3          N/A
NENE CABIN*      N/A    N/A N/A N/A N5          N/A
AHUMOA*          N/A     46  46 100 NE3         N/A
PTA PORTABLE*  NOT AVBL
PUU MALI*      NOT AVBL
$$

HIC003-311100-
NORTHWEST ISLANDS-

CITY           SKY/WX    TMP DP  RH WIND       PRES   REMARKS
MIDWAY ISLAND  MOCLDY    55  46  71 CALM      30.09R
MIDWAY NOS*    NOT AVBL
FRENCH FRIGATE NOT AVBL
$$

PHZ110>124-180-311100-
BUOY REPORTS

STATION/POSITION TIME  TEMP    WIND        PRES    WAVE   SWELL
                       AIR SEA DIR/SP/G            HT/PER HT/DIR
                 (UTC) (F)     (DEG/KT/KT) (MB)    (FT/S) (FT/D)
BUOY 51001       NOT AVBL
BUOY 51101       1000   66 72  300/ 14/ 17 1016.2F  11/13  10/310
BUOY 51100       1000   72 75  360/  2/  6 1016.3F
BUOY 51003       1000   74 78   30/ 12/ 14 1016.3R   9/12   8
BUOY 51004       0916   77 78  100/ 14/ 16 1014.7F   6/12   5/320
BARBERS PT BUOY  NOT AVBL
WAIMEA BAY BUOY  1000      77                N/A     8/13   7/310
KAILUA BAY BUOY  1000      77                N/A     5/12   3/350
LANAI BUOY       1000      77                N/A     4/13   3/290
BARBERS PT 2     1000      76                N/A     6/11   5/310
PAUWELA MAUI     1000      76                N/A     9/13   7/320
HILO             1000      76                N/A     7/12   5/340
KANEOHE BAY BUOY 1000      76                N/A     5/11   3/340
HANALEI KAUAI    NOT AVBL
KAHULUI HARBOR   1000   72 77  300/  6/  7 1015.5F
HONOLULU HARBOR  1000   72 76  350/  1/  3 1016.0R
KILO NALU        NOT AVBL
HILO HARBOR      1000   73 77  170/  1/  2 1015.3F
MOKUOLOE         1000      75              1016.2S
NAWILIWILI       1000      76                N/A
WHOTS BUOY       NOT AVBL
BUOY 51028       NOT AVBL
$$

......................KEY........................................
  SKY/WX - SKY CONDITIONS/PRESENT WEATHER
  TMP    - TEMPERATURE IN FAHRENHEIT
  DWPT   - DEWPOINT IN FAHRENHEIT
  RH     - RELATIVE HUMIDITY IN PERCENT
  WIND   - DIRECTION AND SPEED /MPH FOR ISLANDS...KTS FOR BUOYS/
  PRES   - MEAN SEA LEVEL PRESSURE IN INCHES OF HG
  VSB    - VISIBILITY IN MILES
  HX     - HEAT INDEX
  WCI    - WIND CHILL INDEX
  VRB    - VARIABLE WIND DIRECTION
  N/A    - NOT AVAILABLE



USA.gov is the U.S. government's official web portal to all federal, state and local government web resources and services.